Date,TemperatureHighF,TemperatureAvgF,TemperatureLowF,DewpointHighF,DewpointAvgF,DewpointLowF,HumidityHigh,HumidityAvg,HumidityLow,PressureMaxIn,PressureMinIn,WindSpeedMaxMPH,WindSpeedAvgMPH,GustSpeedMaxMPH,PrecipitationSumIn
2013-9-1,59.8,58.2,57.1,57.0,54.3,53.0,95,87,78,30.20,30.13,17,8,0,0.05
2013-9-2,62.6,60.3,58.2,61.0,59.1,57.0,98,95,91,30.23,30.10,24,8,0,0.13
2013-9-3,66.8,61.9,57.6,61.0,58.7,56.0,96,89,69,30.21,30.13,14,4,0,0.00
2013-9-4,67.1,58.2,50.7,58.0,54.3,49.0,98,87,72,30.12,29.85,14,3,0,0.00
2013-9-5,64.5,54.7,41.8,57.0,49.2,39.0,97,83,59,29.88,29.83,14,3,0,0.00
2013-9-6,55.7,46.2,36.3,50.0,43.5,35.0,100,91,76,29.89,29.83,6,2,0,0.21
2013-9-7,55.2,50.9,45.5,54.0,48.7,44.0,97,92,83,29.86,29.69,8,4,0,0.50
2013-9-8,59.6,51.6,44.8,54.0,48.4,43.0,96,89,75,29.91,29.83,9,2,0,0.09
2013-9-9,65.8,52.9,44.7,56.0,49.3,44.0,100,88,65,30.13,29.90,13,2,0,0.07
2013-9-10,63.9,53.0,46.6,54.0,49.5,44.0,94,88,71,30.20,30.13,14,6,0,0.00
2013-9-11,61.3,56.5,53.4,60.0,54.8,51.0,97,94,91,30.20,30.03,9,2,0,0.13
2013-9-12,60.5,56.9,53.5,60.0,55.6,52.0,97,95,92,30.04,29.83,13,4,0,0.50
2013-9-13,57.7,52.0,47.2,53.0,47.7,44.0,96,86,69,30.04,29.96,8,2,0,0.00
2013-9-14,62.1,50.9,40.3,52.0,46.5,39.0,98,86,66,30.03,29.88,12,2,0,0.01
2013-9-15,57.4,51.3,42.5,57.0,48.9,41.0,97,91,72,29.87,29.20,25,11,0,1.27
2013-9-16,53.9,47.1,42.7,51.0,45.3,41.0,96,93,86,29.34,29.25,20,8,0,0.28
2013-9-17,53.8,49.2,44.4,49.0,46.2,43.0,95,89,83,29.37,29.27,14,6,0,0.02
2013-9-18,54.7,48.7,42.9,51.0,46.8,42.0,97,93,81,29.70,29.37,12,4,0,0.13
2013-9-19,56.5,51.4,46.7,56.0,50.3,45.0,99,96,93,29.75,29.44,11,3,0,0.62
2013-9-20,59.5,53.6,46.0,53.0,50.5,45.0,98,89,74,29.98,29.76,15,5,0,0.02
2013-9-21,60.6,57.0,52.8,59.0,55.0,50.0,96,93,87,30.07,29.98,12,4,0,0.00
2013-9-22,67.7,60.9,57.8,61.0,57.9,56.0,95,90,76,30.24,30.07,13,4,0,0.01
2013-9-23,63.5,59.4,55.7,61.0,57.8,54.0,97,94,90,30.23,30.06,8,2,0,0.00
2013-9-24,59.6,57.8,56.8,59.0,56.8,56.0,98,97,95,30.05,29.89,7,1,0,0.06
2013-9-25,58.2,55.5,50.1,57.0,53.8,47.0,98,94,83,29.98,29.84,14,4,0,0.02
2013-9-26,57.5,52.4,47.2,51.0,48.8,45.0,96,88,78,30.05,29.99,8,3,0,0.02
2013-9-27,59.2,55.1,52.2,58.0,54.2,51.0,98,97,94,30.00,29.87,5,1,0,0.02
2013-9-28,69.7,58.0,48.2,60.0,54.6,47.0,98,89,69,29.87,29.77,7,2,0,0.00
2013-9-29,65.7,55.0,47.7,55.0,49.8,46.0,95,84,65,29.85,29.79,13,5,0,0.00
2013-9-30,63.9,54.0,47.3,54.0,49.2,46.0,94,84,70,29.82,29.72,11,5,0,0.01